Time,TemperatureF,DewpointF,PressureIn,WindDirection,WindDirectionDegrees,WindSpeedMPH,WindSpeedGustMPH,Humidity,HourlyPrecipIn,Conditions,Clouds,dailyrainin,SoftwareType,DateUTC
2013-01-12 00:00:00,40.9,39.3,30.24,ESE,115,2.0,2.0,94,0.00,,,0.20,Wunderground v.1.15,2013-01-12 05:00:00,
2013-01-12 00:01:00,40.9,39.3,30.23,ESE,110,2.0,2.0,94,0.00,,,0.20,Wunderground v.1.15,2013-01-12 05:01:00,
2013-01-12 00:03:00,40.9,39.3,30.24,SSE,147,2.0,3.0,94,0.00,,,0.20,Wunderground v.1.15,2013-01-12 05:03:00,
2013-01-12 00:04:00,41.0,39.4,30.24,ESE,107,2.0,3.0,94,0.00,,,0.20,Wunderground v.1.15,2013-01-12 05:04:00,
2013-01-12 00:10:00,41.0,39.4,30.23,SE,138,2.0,4.0,94,0.00,,,0.20,Wunderground v.1.15,2013-01-12 05:10:00,
2013-01-12 00:16:00,41.1,39.5,30.23,SSE,150,2.0,4.0,94,0.00,,,0.20,Wunderground v.1.15,2013-01-12 05:16:00,
2013-01-12 00:22:00,41.2,39.6,30.24,SE,126,3.0,4.0,94,0.00,,,0.00,Wunderground v.1.15,2013-01-12 05:22:00,
2013-01-12 00:28:00,41.3,39.7,30.24,ESE,110,2.0,5.0,94,0.00,,,0.00,Wunderground v.1.15,2013-01-12 05:28:00,
2013-01-12 00:33:00,41.4,39.8,30.24,ESE,109,1.0,5.0,94,0.00,,,0.01,Wunderground v.1.15,2013-01-12 05:33:00,
2013-01-12 00:39:00,41.4,39.8,30.23,SE,141,2.0,5.0,94,0.00,,,0.01,Wunderground v.1.15,2013-01-12 05:39:00,
2013-01-12 00:45:00,41.4,39.8,30.23,SE,134,2.0,5.0,94,0.00,,,0.01,Wunderground v.1.15,2013-01-12 05:45:00,
2013-01-12 00:50:00,41.5,39.9,30.23,SE,138,2.0,5.0,94,0.00,,,0.01,Wunderground v.1.15,2013-01-12 05:50:00,
2013-01-12 00:56:00,41.5,39.9,30.23,ESE,111,2.0,5.0,94,0.00,,,0.01,Wunderground v.1.15,2013-01-12 05:56:00,
2013-01-12 01:01:00,41.5,39.9,30.23,East,98,2.0,2.0,94,0.00,,,0.01,Wunderground v.1.15,2013-01-12 06:01:00,
2013-01-12 01:07:00,41.6,40.0,30.23,ESE,120,2.0,3.0,94,0.00,,,0.01,Wunderground v.1.15,2013-01-12 06:07:00,
2013-01-12 01:13:00,41.5,39.9,30.23,East,99,2.0,2.0,94,0.00,,,0.01,Wunderground v.1.15,2013-01-12 06:13:00,
2013-01-12 01:18:00,41.6,40.0,30.23,ESE,117,2.0,4.0,94,0.00,,,0.01,Wunderground v.1.15,2013-01-12 06:18:00,
2013-01-12 01:24:00,41.6,40.0,30.24,ESE,120,2.0,2.0,94,0.00,,,0.01,Wunderground v.1.15,2013-01-12 06:24:00,
2013-01-12 01:29:00,41.5,39.9,30.24,SE,127,2.0,3.0,94,0.00,,,0.01,Wunderground v.1.15,2013-01-12 06:29:00,
2013-01-12 01:35:00,41.4,39.8,30.24,ESE,117,2.0,5.0,94,0.00,,,0.01,Wunderground v.1.15,2013-01-12 06:35:00,
2013-01-12 01:41:00,41.3,39.7,30.24,East,89,2.0,5.0,94,0.00,,,0.01,Wunderground v.1.15,2013-01-12 06:41:00,
2013-01-12 01:47:00,41.2,39.3,30.23,SE,134,2.0,5.0,93,0.00,,,0.01,Wunderground v.1.15,2013-01-12 06:47:00,
2013-01-12 01:53:00,41.0,39.1,30.23,ESE,119,2.0,5.0,93,0.00,,,0.02,Wunderground v.1.15,2013-01-12 06:53:00,
2013-01-12 01:59:00,40.9,39.0,30.23,ESE,121,2.0,5.0,93,0.00,,,0.02,Wunderground v.1.15,2013-01-12 06:59:00,
2013-01-12 02:05:00,40.7,38.8,30.22,ESE,114,2.0,4.0,93,0.00,,,0.02,Wunderground v.1.15,2013-01-12 07:05:00,
2013-01-12 02:11:00,40.7,39.1,30.22,ESE,117,2.0,2.0,94,0.00,,,0.02,Wunderground v.1.15,2013-01-12 07:11:00,
2013-01-12 02:17:00,40.6,38.7,30.22,ESE,120,2.0,2.0,93,0.00,,,0.02,Wunderground v.1.15,2013-01-12 07:17:00,
2013-01-12 02:22:00,40.6,39.0,30.22,SE,146,1.0,2.0,94,0.00,,,0.02,Wunderground v.1.15,2013-01-12 07:22:00,
2013-01-12 02:28:00,40.5,38.9,30.21,ESE,123,1.0,2.0,94,0.00,,,0.02,Wunderground v.1.15,2013-01-12 07:28:00,
2013-01-12 02:33:00,40.6,39.0,30.21,ESE,121,2.0,5.0,94,0.00,,,0.02,Wunderground v.1.15,2013-01-12 07:33:00,
2013-01-12 02:39:00,40.6,39.0,30.21,ESE,120,2.0,5.0,94,0.00,,,0.02,Wunderground v.1.15,2013-01-12 07:39:00,
2013-01-12 02:45:00,40.5,38.9,30.21,SSW,194,2.0,5.0,94,0.00,,,0.02,Wunderground v.1.15,2013-01-12 07:45:00,
2013-01-12 02:51:00,40.5,38.9,30.21,ESE,113,1.0,5.0,94,0.00,,,0.02,Wunderground v.1.15,2013-01-12 07:51:00,
2013-01-12 02:57:00,40.5,38.9,30.21,ESE,123,1.0,5.0,94,0.00,,,0.02,Wunderground v.1.15,2013-01-12 07:57:00,
2013-01-12 03:03:00,40.5,38.9,30.20,ESE,113,1.0,2.0,94,0.00,,,0.02,Wunderground v.1.15,2013-01-12 08:03:00,
2013-01-12 03:09:00,40.5,38.9,30.20,ESE,118,1.0,3.0,94,0.00,,,0.02,Wunderground v.1.15,2013-01-12 08:09:00,
2013-01-12 03:14:00,40.5,38.9,30.19,ESE,113,2.0,3.0,94,0.00,,,0.02,Wunderground v.1.15,2013-01-12 08:14:00,
2013-01-12 03:20:00,40.5,38.9,30.20,East,95,2.0,2.0,94,0.00,,,0.02,Wunderground v.1.15,2013-01-12 08:20:00,
2013-01-12 03:26:00,40.5,38.9,30.19,ESE,105,2.0,3.0,94,0.00,,,0.02,Wunderground v.1.15,2013-01-12 08:26:00,
2013-01-12 03:32:00,40.5,38.9,30.19,ESE,115,2.0,6.0,94,0.00,,,0.02,Wunderground v.1.15,2013-01-12 08:32:00,
2013-01-12 03:38:00,40.6,39.0,30.19,ESE,117,1.0,6.0,94,0.00,,,0.02,Wunderground v.1.15,2013-01-12 08:38:00,
2013-01-12 03:44:00,40.6,39.0,30.18,SE,127,2.0,6.0,94,0.00,,,0.02,Wunderground v.1.15,2013-01-12 08:44:00,
2013-01-12 03:50:00,40.6,39.0,30.18,ESE,116,2.0,6.0,94,0.00,,,0.02,Wunderground v.1.15,2013-01-12 08:50:00,
2013-01-12 03:56:00,40.6,39.0,30.18,SE,129,2.0,6.0,94,0.00,,,0.02,Wunderground v.1.15,2013-01-12 08:56:00,
2013-01-12 04:02:00,40.6,39.0,30.18,ESE,110,3.0,3.0,94,0.00,,,0.02,Wunderground v.1.15,2013-01-12 09:02:00,
2013-01-12 04:07:00,40.5,38.9,30.18,ESE,119,3.0,4.0,94,0.00,,,0.02,Wunderground v.1.15,2013-01-12 09:07:00,
2013-01-12 04:13:00,40.4,38.8,30.17,ESE,103,2.0,3.0,94,0.00,,,0.02,Wunderground v.1.15,2013-01-12 09:13:00,
2013-01-12 04:19:00,40.4,38.8,30.17,SE,130,3.0,3.0,94,0.00,,,0.02,Wunderground v.1.15,2013-01-12 09:19:00,
2013-01-12 04:25:00,40.3,38.7,30.17,ESE,119,3.0,5.0,94,0.00,,,0.02,Wunderground v.1.15,2013-01-12 09:25:00,
2013-01-12 04:31:00,40.2,38.6,30.17,ESE,123,2.0,6.0,94,0.00,,,0.02,Wunderground v.1.15,2013-01-12 09:31:00,
2013-01-12 04:37:00,40.2,38.6,30.17,SE,129,2.0,6.0,94,0.00,,,0.02,Wunderground v.1.15,2013-01-12 09:37:00,
2013-01-12 04:43:00,40.2,38.6,30.18,ESE,115,2.0,6.0,94,0.00,,,0.02,Wunderground v.1.15,2013-01-12 09:43:00,
2013-01-12 04:48:00,40.2,38.6,30.18,ESE,110,2.0,6.0,94,0.00,,,0.02,Wunderground v.1.15,2013-01-12 09:48:00,
2013-01-12 04:54:00,40.2,38.6,30.17,ESE,113,2.0,6.0,94,0.00,,,0.02,Wunderground v.1.15,2013-01-12 09:54:00,
2013-01-12 05:00:00,40.2,38.6,30.17,ESE,110,3.0,4.0,94,0.00,,,0.02,Wunderground v.1.15,2013-01-12 10:00:00,
2013-01-12 05:06:00,40.3,38.7,30.17,ESE,117,3.0,4.0,94,0.00,,,0.02,Wunderground v.1.15,2013-01-12 10:06:00,
2013-01-12 05:12:00,40.3,38.7,30.17,ESE,110,2.0,3.0,94,0.00,,,0.02,Wunderground v.1.15,2013-01-12 10:12:00,
2013-01-12 05:18:00,40.3,38.7,30.17,ESE,116,3.0,5.0,94,0.00,,,0.02,Wunderground v.1.15,2013-01-12 10:18:00,
2013-01-12 05:24:00,40.4,38.8,30.17,SE,124,3.0,6.0,94,0.00,,,0.02,Wunderground v.1.15,2013-01-12 10:24:00,
2013-01-12 05:30:00,40.5,38.9,30.17,ESE,122,3.0,4.0,94,0.00,,,0.02,Wunderground v.1.15,2013-01-12 10:30:00,
2013-01-12 05:35:00,40.6,39.0,30.17,SE,124,3.0,5.0,94,0.00,,,0.02,Wunderground v.1.15,2013-01-12 10:35:00,
2013-01-12 05:41:00,40.6,39.0,30.17,ESE,117,2.0,3.0,94,0.00,,,0.02,Wunderground v.1.15,2013-01-12 10:41:00,
2013-01-12 05:47:00,40.7,39.1,30.17,SE,133,3.0,5.0,94,0.00,,,0.02,Wunderground v.1.15,2013-01-12 10:47:00,
2013-01-12 05:53:00,40.8,39.2,30.17,ESE,117,2.0,5.0,94,0.00,,,0.02,Wunderground v.1.15,2013-01-12 10:53:00,
2013-01-12 05:59:00,40.9,39.3,30.17,ESE,114,2.0,5.0,94,0.00,,,0.02,Wunderground v.1.15,2013-01-12 10:59:00,
2013-01-12 06:05:00,41.0,39.4,30.18,ESE,119,2.0,4.0,94,0.00,,,0.02,Wunderground v.1.15,2013-01-12 11:05:00,
2013-01-12 06:11:00,41.1,39.5,30.17,ESE,110,3.0,4.0,94,0.00,,,0.02,Wunderground v.1.15,2013-01-12 11:11:00,
2013-01-12 06:17:00,41.1,39.5,30.18,ESE,117,3.0,4.0,94,0.00,,,0.02,Wunderground v.1.15,2013-01-12 11:17:00,
2013-01-12 06:23:00,41.2,39.6,30.18,ESE,107,2.0,4.0,94,0.00,,,0.02,Wunderground v.1.15,2013-01-12 11:23:00,
2013-01-12 06:28:00,41.3,39.7,30.18,East,101,2.0,4.0,94,0.00,,,0.02,Wunderground v.1.15,2013-01-12 11:28:00,
2013-01-12 06:34:00,41.3,39.7,30.18,ESE,116,2.0,7.0,94,0.00,,,0.02,Wunderground v.1.15,2013-01-12 11:34:00,
2013-01-12 06:40:00,41.4,39.8,30.18,ESE,117,2.0,7.0,94,0.00,,,0.02,Wunderground v.1.15,2013-01-12 11:40:00,
2013-01-12 06:46:00,41.4,39.8,30.17,ESE,119,2.0,7.0,94,0.00,,,0.02,Wunderground v.1.15,2013-01-12 11:46:00,
2013-01-12 06:52:00,41.4,39.8,30.17,ESE,113,2.0,7.0,94,0.00,,,0.02,Wunderground v.1.15,2013-01-12 11:52:00,
2013-01-12 06:58:00,41.4,39.8,30.16,ESE,113,3.0,7.0,94,0.00,,,0.02,Wunderground v.1.15,2013-01-12 11:58:00,
2013-01-12 07:04:00,41.4,39.8,30.16,ESE,111,3.0,3.0,94,0.00,,,0.02,Wunderground v.1.15,2013-01-12 12:04:00,
2013-01-12 07:10:00,41.4,39.8,30.15,SE,129,3.0,3.0,94,0.00,,,0.02,Wunderground v.1.15,2013-01-12 12:10:00,
2013-01-12 07:16:00,41.4,39.8,30.15,SE,125,3.0,4.0,94,0.00,,,0.02,Wunderground v.1.15,2013-01-12 12:16:00,
2013-01-12 07:22:00,41.4,39.8,30.17,East,96,2.0,3.0,94,0.00,,,0.02,Wunderground v.1.15,2013-01-12 12:22:00,
2013-01-12 07:27:00,41.5,39.9,30.17,East,94,1.0,3.0,94,0.00,,,0.02,Wunderground v.1.15,2013-01-12 12:27:00,
2013-01-12 07:33:00,41.5,39.9,30.17,ESE,120,1.0,6.0,94,0.00,,,0.02,Wunderground v.1.15,2013-01-12 12:33:00,
2013-01-12 07:39:00,41.6,40.0,30.17,ESE,117,2.0,6.0,94,0.00,,,0.02,Wunderground v.1.15,2013-01-12 12:39:00,
2013-01-12 07:45:00,41.7,40.1,30.17,ESE,114,2.0,6.0,94,0.00,,,0.02,Wunderground v.1.15,2013-01-12 12:45:00,
2013-01-12 07:51:00,41.7,40.1,30.18,East,100,2.0,6.0,94,0.00,,,0.02,Wunderground v.1.15,2013-01-12 12:51:00,
2013-01-12 07:57:00,41.8,40.2,30.18,SE,126,2.0,6.0,94,0.00,,,0.02,Wunderground v.1.15,2013-01-12 12:57:00,
2013-01-12 08:03:00,41.9,40.6,30.18,East,94,2.0,5.0,95,0.00,,,0.02,Wunderground v.1.15,2013-01-12 13:03:00,
2013-01-12 08:09:00,42.0,40.7,30.19,ESE,116,2.0,5.0,95,0.00,,,0.02,Wunderground v.1.15,2013-01-12 13:09:00,
2013-01-12 08:15:00,42.1,40.8,30.19,ESE,116,2.0,2.0,95,0.00,,,0.02,Wunderground v.1.15,2013-01-12 13:15:00,
2013-01-12 08:21:00,42.2,40.6,30.19,East,99,2.0,2.0,94,0.00,,,0.02,Wunderground v.1.15,2013-01-12 13:21:00,
2013-01-12 08:27:00,42.4,40.8,30.19,East,94,1.0,2.0,94,0.00,,,0.02,Wunderground v.1.15,2013-01-12 13:27:00,
2013-01-12 08:32:00,42.4,40.8,30.19,ESE,111,1.0,5.0,94,0.00,,,0.02,Wunderground v.1.15,2013-01-12 13:32:00,
2013-01-12 08:38:00,42.5,41.2,30.19,East,89,1.0,5.0,95,0.00,,,0.02,Wunderground v.1.15,2013-01-12 13:38:00,
2013-01-12 08:43:00,42.7,41.4,30.19,East,95,1.0,5.0,95,0.00,,,0.02,Wunderground v.1.15,2013-01-12 13:43:00,
2013-01-12 08:49:00,42.8,41.5,30.19,East,84,1.0,5.0,95,0.00,,,0.02,Wunderground v.1.15,2013-01-12 13:49:00,
2013-01-12 08:55:00,42.9,41.3,30.19,East,82,1.0,5.0,94,0.00,,,0.02,Wunderground v.1.15,2013-01-12 13:55:00,
2013-01-12 09:00:00,43.0,41.4,30.18,ESE,103,1.0,1.0,94,0.00,,,0.02,Wunderground v.1.15,2013-01-12 14:00:00,
2013-01-12 09:06:00,43.2,41.6,30.18,East,93,1.0,1.0,94,0.00,,,0.02,Wunderground v.1.15,2013-01-12 14:06:00,
2013-01-12 09:12:00,43.2,41.9,30.19,East,81,1.0,1.0,95,0.00,,,0.02,Wunderground v.1.15,2013-01-12 14:12:00,
2013-01-12 09:17:00,43.3,42.0,30.19,ESE,117,1.0,1.0,95,0.00,,,0.02,Wunderground v.1.15,2013-01-12 14:17:00,
2013-01-12 09:23:00,43.3,42.0,30.19,ENE,63,1.0,2.0,95,0.00,,,0.02,Wunderground v.1.15,2013-01-12 14:23:00,
2013-01-12 09:29:00,43.3,42.0,30.20,SE,138,1.0,2.0,95,0.00,,,0.02,Wunderground v.1.15,2013-01-12 14:29:00,
2013-01-12 09:35:00,43.3,42.0,30.20,East,94,1.0,4.0,95,0.00,,,0.02,Wunderground v.1.15,2013-01-12 14:35:00,
2013-01-12 09:40:00,43.4,42.1,30.20,ESE,113,1.0,4.0,95,0.00,,,0.02,Wunderground v.1.15,2013-01-12 14:40:00,
2013-01-12 09:46:00,43.5,42.2,30.20,ESE,113,1.0,4.0,95,0.00,,,0.03,Wunderground v.1.15,2013-01-12 14:46:00,
2013-01-12 09:52:00,43.7,42.4,30.20,ESE,103,1.0,4.0,95,0.00,,,0.03,Wunderground v.1.15,2013-01-12 14:52:00,
2013-01-12 09:58:00,43.8,42.5,30.20,ESE,104,1.0,4.0,95,0.00,,,0.03,Wunderground v.1.15,2013-01-12 14:58:00,
2013-01-12 10:04:00,43.9,42.6,30.20,ENE,59,1.0,2.0,95,0.00,,,0.04,Wunderground v.1.15,2013-01-12 15:04:00,
2013-01-12 10:10:00,44.1,42.8,30.19,ESE,111,1.0,1.0,95,0.00,,,0.04,Wunderground v.1.15,2013-01-12 15:10:00,
2013-01-12 10:16:00,44.4,43.1,30.19,ENE,76,1.0,1.0,95,0.00,,,0.04,Wunderground v.1.15,2013-01-12 15:16:00,
2013-01-12 10:22:00,44.7,43.4,30.19,ESE,117,1.0,2.0,95,0.00,,,0.04,Wunderground v.1.15,2013-01-12 15:22:00,
2013-01-12 10:28:00,44.9,43.6,30.18,East,81,2.0,2.0,95,0.00,,,0.04,Wunderground v.1.15,2013-01-12 15:28:00,
2013-01-12 10:34:00,45.2,43.9,30.19,East,91,1.0,3.0,95,0.00,,,0.04,Wunderground v.1.15,2013-01-12 15:34:00,
2013-01-12 10:39:00,45.2,43.9,30.19,East,93,1.0,3.0,95,0.00,,,0.04,Wunderground v.1.15,2013-01-12 15:39:00,
2013-01-12 10:45:00,45.3,44.0,30.19,East,89,1.0,3.0,95,0.00,,,0.04,Wunderground v.1.15,2013-01-12 15:45:00,
2013-01-12 10:51:00,45.2,43.9,30.19,East,84,1.0,3.0,95,0.00,,,0.04,Wunderground v.1.15,2013-01-12 15:51:00,
2013-01-12 10:57:00,45.2,43.9,30.19,ENE,65,1.0,3.0,95,0.00,,,0.04,Wunderground v.1.15,2013-01-12 15:57:00,
2013-01-12 11:03:00,45.2,43.9,30.18,East,79,1.0,1.0,95,0.00,,,0.04,Wunderground v.1.15,2013-01-12 16:03:00,
2013-01-12 11:09:00,45.0,43.4,30.18,ENE,70,2.0,3.0,94,0.00,,,0.04,Wunderground v.1.15,2013-01-12 16:09:00,
2013-01-12 11:15:00,44.7,43.1,30.17,ENE,65,2.0,3.0,94,0.00,,,0.04,Wunderground v.1.15,2013-01-12 16:15:00,
2013-01-12 11:20:00,44.8,43.2,30.17,NNE,26,1.0,2.0,94,0.00,,,0.04,Wunderground v.1.15,2013-01-12 16:20:00,
2013-01-12 11:26:00,44.6,43.0,30.17,ENE,68,2.0,2.0,94,0.00,,,0.04,Wunderground v.1.15,2013-01-12 16:26:00,
2013-01-12 11:32:00,44.5,42.9,30.16,East,101,2.0,4.0,94,0.00,,,0.04,Wunderground v.1.15,2013-01-12 16:32:00,
2013-01-12 11:38:00,44.6,43.0,30.16,East,96,2.0,4.0,94,0.00,,,0.05,Wunderground v.1.15,2013-01-12 16:38:00,
2013-01-12 11:44:00,44.5,42.9,30.17,East,100,1.0,4.0,94,0.00,,,0.05,Wunderground v.1.15,2013-01-12 16:44:00,
2013-01-12 11:50:00,44.5,42.9,30.18,ESE,109,1.0,1.0,94,0.00,,,0.05,Wunderground v.1.15,2013-01-12 16:50:00,
2013-01-12 11:56:00,44.5,42.9,30.18,NE,36,1.0,4.0,94,0.00,,,0.05,Wunderground v.1.15,2013-01-12 16:56:00,
2013-01-12 12:02:00,44.5,42.9,30.18,ENE,74,1.0,2.0,94,0.00,,,0.05,Wunderground v.1.15,2013-01-12 17:02:00,
2013-01-12 12:08:00,44.4,42.8,30.16,East,98,1.0,3.0,94,0.00,,,0.05,Wunderground v.1.15,2013-01-12 17:08:00,
2013-01-12 12:14:00,44.6,43.3,30.16,East,79,1.0,2.0,95,0.00,,,0.05,Wunderground v.1.15,2013-01-12 17:14:00,
2013-01-12 12:19:00,44.7,43.1,30.15,East,99,2.0,3.0,94,0.00,,,0.05,Wunderground v.1.15,2013-01-12 17:19:00,
2013-01-12 12:25:00,44.9,43.6,30.15,East,82,2.0,2.0,95,0.00,,,0.05,Wunderground v.1.15,2013-01-12 17:25:00,
2013-01-12 12:31:00,45.2,43.9,30.15,ENE,64,1.0,4.0,95,0.00,,,0.05,Wunderground v.1.15,2013-01-12 17:31:00,
2013-01-12 12:37:00,45.2,43.9,30.15,ESE,113,1.0,4.0,95,0.00,,,0.05,Wunderground v.1.15,2013-01-12 17:37:00,
2013-01-12 12:43:00,45.2,43.9,30.15,East,84,1.0,4.0,95,0.00,,,0.05,Wunderground v.1.15,2013-01-12 17:43:00,
2013-01-12 12:49:00,45.3,44.0,30.14,ESE,111,1.0,4.0,95,0.00,,,0.05,Wunderground v.1.15,2013-01-12 17:49:00,
2013-01-12 12:55:00,45.5,44.2,30.14,ESE,105,1.0,4.0,95,0.00,,,0.05,Wunderground v.1.15,2013-01-12 17:55:00,
2013-01-12 13:00:00,45.7,44.4,30.14,East,101,2.0,2.0,95,0.00,,,0.05,Wunderground v.1.15,2013-01-12 18:00:00,
2013-01-12 13:06:00,45.8,44.4,30.14,East,89,2.0,3.0,95,0.00,,,0.05,Wunderground v.1.15,2013-01-12 18:06:00,
2013-01-12 13:12:00,46.0,44.6,30.14,East,84,1.0,2.0,95,0.00,,,0.05,Wunderground v.1.15,2013-01-12 18:12:00,
2013-01-12 13:18:00,45.8,44.4,30.15,East,84,1.0,3.0,95,0.00,,,0.05,Wunderground v.1.15,2013-01-12 18:18:00,
2013-01-12 13:24:00,45.5,43.9,30.13,ENE,72,2.0,3.0,94,0.00,,,0.05,Wunderground v.1.15,2013-01-12 18:24:00,
2013-01-12 13:30:00,45.4,43.8,30.13,East,92,2.0,2.0,94,0.00,,,0.05,Wunderground v.1.15,2013-01-12 18:30:00,
2013-01-12 13:36:00,45.2,43.6,30.13,ENE,76,2.0,3.0,94,0.00,,,0.05,Wunderground v.1.15,2013-01-12 18:36:00,
2013-01-12 13:42:00,44.9,43.3,30.14,East,85,2.0,3.0,94,0.00,,,0.05,Wunderground v.1.15,2013-01-12 18:42:00,
2013-01-12 13:48:00,45.0,43.7,30.15,ENE,58,1.0,3.0,95,0.00,,,0.05,Wunderground v.1.15,2013-01-12 18:48:00,
2013-01-12 13:53:00,45.1,43.8,30.15,East,79,1.0,3.0,95,0.00,,,0.05,Wunderground v.1.15,2013-01-12 18:53:00,
2013-01-12 13:59:00,45.1,43.8,30.16,ENE,67,1.0,3.0,95,0.00,,,0.05,Wunderground v.1.15,2013-01-12 18:59:00,
2013-01-12 14:05:00,45.0,43.7,30.16,ENE,64,1.0,2.0,95,0.00,,,0.05,Wunderground v.1.15,2013-01-12 19:05:00,
2013-01-12 14:11:00,44.8,43.2,30.16,NE,41,1.0,1.0,94,0.00,,,0.05,Wunderground v.1.15,2013-01-12 19:11:00,
2013-01-12 14:17:00,44.6,43.0,30.17,ENE,63,2.0,3.0,94,0.00,,,0.05,Wunderground v.1.15,2013-01-12 19:17:00,
2013-01-12 14:23:00,44.6,43.3,30.17,ENE,73,1.0,3.0,95,0.00,,,0.05,Wunderground v.1.15,2013-01-12 19:23:00,
2013-01-12 14:29:00,44.4,42.8,30.17,East,97,1.0,3.0,94,0.00,,,0.05,Wunderground v.1.15,2013-01-12 19:29:00,
2013-01-12 14:35:00,44.4,43.1,30.18,ENE,77,1.0,6.0,95,0.00,,,0.05,Wunderground v.1.15,2013-01-12 19:35:00,
2013-01-12 14:41:00,44.3,43.0,30.18,ENE,75,1.0,6.0,95,0.00,,,0.05,Wunderground v.1.15,2013-01-12 19:41:00,
2013-01-12 14:46:00,44.3,43.0,30.18,ENE,61,1.0,6.0,95,0.00,,,0.05,Wunderground v.1.15,2013-01-12 19:46:00,
2013-01-12 14:52:00,44.2,42.9,30.18,ENE,58,2.0,6.0,95,0.00,,,0.05,Wunderground v.1.15,2013-01-12 19:52:00,
2013-01-12 14:58:00,44.1,42.8,30.18,ENE,60,1.0,6.0,95,0.00,,,0.05,Wunderground v.1.15,2013-01-12 19:58:00,
2013-01-12 15:04:00,44.1,42.8,30.18,East,101,1.0,2.0,95,0.00,,,0.05,Wunderground v.1.15,2013-01-12 20:04:00,
2013-01-12 15:10:00,44.1,42.8,30.18,East,82,1.0,1.0,95,0.00,,,0.05,Wunderground v.1.15,2013-01-12 20:10:00,
2013-01-12 15:16:00,44.1,42.8,30.18,ENE,65,1.0,3.0,95,0.00,,,0.05,Wunderground v.1.15,2013-01-12 20:16:00,
2013-01-12 15:22:00,44.0,42.7,30.18,ENE,68,1.0,3.0,95,0.00,,,0.05,Wunderground v.1.15,2013-01-12 20:22:00,
2013-01-12 15:27:00,43.9,42.6,30.18,East,83,2.0,3.0,95,0.00,,,0.05,Wunderground v.1.15,2013-01-12 20:27:00,
2013-01-12 15:33:00,43.8,42.5,30.18,NE,44,1.0,4.0,95,0.00,,,0.05,Wunderground v.1.15,2013-01-12 20:33:00,
2013-01-12 15:39:00,43.9,42.6,30.18,NNE,26,1.0,4.0,95,0.00,,,0.05,Wunderground v.1.15,2013-01-12 20:39:00,
2013-01-12 15:45:00,43.9,42.6,30.19,ENE,69,1.0,4.0,95,0.00,,,0.05,Wunderground v.1.15,2013-01-12 20:45:00,
2013-01-12 15:50:00,43.9,42.6,30.19,ENE,64,1.0,4.0,95,0.00,,,0.05,Wunderground v.1.15,2013-01-12 20:50:00,
2013-01-12 15:56:00,43.9,42.6,30.18,ENE,68,1.0,4.0,95,0.00,,,0.05,Wunderground v.1.15,2013-01-12 20:56:00,
2013-01-12 16:01:00,43.9,42.6,30.19,ENE,74,1.0,1.0,95,0.00,,,0.05,Wunderground v.1.15,2013-01-12 21:01:00,
2013-01-12 16:07:00,43.9,42.6,30.18,East,89,1.0,1.0,95,0.00,,,0.05,Wunderground v.1.15,2013-01-12 21:07:00,
2013-01-12 16:13:00,43.9,42.6,30.17,East,82,1.0,1.0,95,0.00,,,0.05,Wunderground v.1.15,2013-01-12 21:13:00,
2013-01-12 16:19:00,43.9,42.6,30.17,ENE,77,1.0,2.0,95,0.00,,,0.05,Wunderground v.1.15,2013-01-12 21:19:00,
2013-01-12 16:25:00,43.9,42.6,30.17,East,99,1.0,2.0,95,0.00,,,0.05,Wunderground v.1.15,2013-01-12 21:25:00,
2013-01-12 16:30:00,43.8,42.5,30.17,East,90,1.0,1.0,95,0.00,,,0.05,Wunderground v.1.15,2013-01-12 21:30:00,
2013-01-12 16:35:00,43.8,42.5,30.16,East,101,1.0,5.0,95,0.00,,,0.05,Wunderground v.1.15,2013-01-12 21:35:00,
2013-01-12 16:41:00,43.8,42.5,30.17,ENE,70,1.0,5.0,95,0.00,,,0.05,Wunderground v.1.15,2013-01-12 21:41:00,
2013-01-12 16:47:00,43.7,42.4,30.17,East,84,1.0,5.0,95,0.00,,,0.05,Wunderground v.1.15,2013-01-12 21:47:00,
2013-01-12 16:53:00,43.7,42.4,30.17,ENE,77,0.0,5.0,95,0.00,,,0.05,Wunderground v.1.15,2013-01-12 21:53:00,
2013-01-12 16:59:00,43.7,42.4,30.17,ENE,77,0.0,5.0,95,0.00,,,0.05,Wunderground v.1.15,2013-01-12 21:59:00,
2013-01-12 17:05:00,43.8,42.5,30.17,East,89,1.0,2.0,95,0.00,,,0.05,Wunderground v.1.15,2013-01-12 22:05:00,
2013-01-12 17:11:00,43.8,42.5,30.17,East,82,0.0,1.0,95,0.00,,,0.05,Wunderground v.1.15,2013-01-12 22:11:00,
2013-01-12 17:16:00,43.8,42.5,30.17,NE,35,0.0,1.0,95,0.00,,,0.05,Wunderground v.1.15,2013-01-12 22:16:00,
2013-01-12 17:22:00,43.8,42.5,30.17,East,89,0.0,1.0,95,0.00,,,0.05,Wunderground v.1.15,2013-01-12 22:22:00,
2013-01-12 17:27:00,43.8,42.5,30.16,East,84,0.0,1.0,95,0.00,,,0.05,Wunderground v.1.15,2013-01-12 22:27:00,
2013-01-12 17:33:00,43.8,42.5,30.16,East,84,0.0,4.0,95,0.00,,,0.05,Wunderground v.1.15,2013-01-12 22:33:00,
2013-01-12 17:39:00,43.8,42.5,30.16,East,84,0.0,4.0,95,0.00,,,0.05,Wunderground v.1.15,2013-01-12 22:39:00,
2013-01-12 17:45:00,43.8,42.5,30.16,ENE,61,0.0,4.0,95,0.00,,,0.05,Wunderground v.1.15,2013-01-12 22:45:00,
2013-01-12 17:51:00,43.8,42.5,30.16,ENE,61,0.0,4.0,95,0.00,,,0.05,Wunderground v.1.15,2013-01-12 22:51:00,
2013-01-12 17:57:00,43.8,42.5,30.17,NE,56,0.0,4.0,95,0.00,,,0.05,Wunderground v.1.15,2013-01-12 22:57:00,
2013-01-12 18:03:00,43.8,42.5,30.17,NE,56,0.0,2.0,95,0.00,,,0.05,Wunderground v.1.15,2013-01-12 23:03:00,
2013-01-12 18:09:00,43.9,42.6,30.17,NE,56,0.0,2.0,95,0.00,,,0.05,Wunderground v.1.15,2013-01-12 23:09:00,
2013-01-12 18:15:00,43.9,42.6,30.18,NE,56,0.0,0.0,95,0.00,,,0.05,Wunderground v.1.15,2013-01-12 23:15:00,
2013-01-12 18:20:00,44.0,42.7,30.18,NE,56,0.0,0.0,95,0.00,,,0.05,Wunderground v.1.15,2013-01-12 23:20:00,
2013-01-12 18:26:00,43.9,42.6,30.18,NE,56,0.0,0.0,95,0.00,,,0.05,Wunderground v.1.15,2013-01-12 23:26:00,
2013-01-12 18:32:00,43.9,42.6,30.18,NE,56,0.0,2.0,95,0.00,,,0.05,Wunderground v.1.15,2013-01-12 23:32:00,
2013-01-12 18:37:00,44.0,42.7,30.18,NE,56,0.0,2.0,95,0.00,,,0.05,Wunderground v.1.15,2013-01-12 23:37:00,
2013-01-12 18:43:00,44.0,42.7,30.18,NE,56,0.0,2.0,95,0.00,,,0.05,Wunderground v.1.15,2013-01-12 23:43:00,
2013-01-12 18:49:00,44.0,42.7,30.18,NNE,23,0.0,2.0,95,0.00,,,0.05,Wunderground v.1.15,2013-01-12 23:49:00,
2013-01-12 18:55:00,44.0,42.7,30.18,NNE,23,0.0,2.0,95,0.00,,,0.05,Wunderground v.1.15,2013-01-12 23:55:00,
2013-01-12 19:00:00,44.0,42.7,30.18,NNE,22,1.0,1.0,95,0.00,,,0.05,Wunderground v.1.15,2013-01-13 00:00:00,
2013-01-12 19:06:00,44.0,42.7,30.17,NNE,22,0.0,1.0,95,0.00,,,0.05,Wunderground v.1.15,2013-01-13 00:06:00,
2013-01-12 19:12:00,44.0,42.7,30.18,NNE,22,0.0,1.0,95,0.00,,,0.05,Wunderground v.1.15,2013-01-13 00:12:00,
2013-01-12 19:18:00,44.0,42.7,30.18,NNE,17,0.0,1.0,95,0.00,,,0.05,Wunderground v.1.15,2013-01-13 00:18:00,
2013-01-12 19:23:00,44.0,42.7,30.18,NNE,17,0.0,0.0,95,0.00,,,0.05,Wunderground v.1.15,2013-01-13 00:23:00,
2013-01-12 19:29:00,44.0,42.7,30.18,NNE,17,0.0,0.0,95,0.00,,,0.05,Wunderground v.1.15,2013-01-13 00:29:00,
2013-01-12 19:34:00,44.0,42.7,30.18,NNE,17,0.0,1.0,95,0.00,,,0.05,Wunderground v.1.15,2013-01-13 00:34:00,
2013-01-12 19:39:00,44.0,42.7,30.18,NNE,17,0.0,1.0,95,0.00,,,0.05,Wunderground v.1.15,2013-01-13 00:39:00,
2013-01-12 19:45:00,44.0,42.7,30.18,NNE,17,0.0,1.0,95,0.00,,,0.05,Wunderground v.1.15,2013-01-13 00:45:00,
2013-01-12 19:50:00,43.9,42.6,30.17,NNE,17,0.0,1.0,95,0.00,,,0.05,Wunderground v.1.15,2013-01-13 00:50:00,
2013-01-12 19:56:00,43.9,42.6,30.17,NNE,17,0.0,1.0,95,0.00,,,0.05,Wunderground v.1.15,2013-01-13 00:56:00,
2013-01-12 20:02:00,43.9,42.6,30.17,NNE,17,0.0,0.0,95,0.00,,,0.05,Wunderground v.1.15,2013-01-13 01:02:00,
2013-01-12 20:08:00,43.9,42.6,30.17,NNE,17,0.0,0.0,95,0.00,,,0.05,Wunderground v.1.15,2013-01-13 01:08:00,
2013-01-12 20:14:00,44.0,42.7,30.17,NNE,18,0.0,0.0,95,0.00,,,0.05,Wunderground v.1.15,2013-01-13 01:14:00,
2013-01-12 20:20:00,43.9,42.6,30.17,NNE,18,0.0,0.0,95,0.00,,,0.05,Wunderground v.1.15,2013-01-13 01:20:00,
2013-01-12 20:26:00,43.9,42.6,30.17,NNE,18,0.0,0.0,95,0.00,,,0.05,Wunderground v.1.15,2013-01-13 01:26:00,
2013-01-12 20:32:00,43.9,42.6,30.17,NNE,18,0.0,1.0,95,0.00,,,0.05,Wunderground v.1.15,2013-01-13 01:32:00,
2013-01-12 20:38:00,43.8,42.5,30.17,NNE,18,0.0,1.0,95,0.00,,,0.05,Wunderground v.1.15,2013-01-13 01:38:00,
2013-01-12 20:44:00,43.8,42.5,30.17,NNE,18,0.0,1.0,95,0.00,,,0.05,Wunderground v.1.15,2013-01-13 01:44:00,
2013-01-12 20:50:00,43.8,42.5,30.17,NNE,18,0.0,1.0,95,0.00,,,0.05,Wunderground v.1.15,2013-01-13 01:50:00,
2013-01-12 20:56:00,43.8,42.5,30.16,NNE,18,0.0,1.0,95,0.00,,,0.05,Wunderground v.1.15,2013-01-13 01:56:00,
2013-01-12 21:01:00,43.8,42.5,30.16,NNE,18,0.0,1.0,95,0.00,,,0.05,Wunderground v.1.15,2013-01-13 02:01:00,
2013-01-12 21:06:00,43.8,42.5,30.16,NNE,18,0.0,1.0,95,0.00,,,0.05,Wunderground v.1.15,2013-01-13 02:06:00,
2013-01-12 21:12:00,43.8,42.7,30.16,NNE,18,0.0,0.0,96,0.00,,,0.05,Wunderground v.1.15,2013-01-13 02:12:00,
2013-01-12 21:18:00,43.8,42.7,30.16,NNE,18,0.0,0.0,96,0.00,,,0.05,Wunderground v.1.15,2013-01-13 02:18:00,
2013-01-12 21:24:00,43.8,42.7,30.16,NNE,18,0.0,0.0,96,0.00,,,0.05,Wunderground v.1.15,2013-01-13 02:24:00,
2013-01-12 21:29:00,43.9,42.8,30.16,NNE,18,0.0,0.0,96,0.00,,,0.05,Wunderground v.1.15,2013-01-13 02:29:00,
2013-01-12 21:35:00,43.8,42.7,30.16,NNE,18,0.0,0.0,96,0.00,,,0.05,Wunderground v.1.15,2013-01-13 02:35:00,
2013-01-12 21:41:00,43.9,42.8,30.16,NNE,18,0.0,0.0,96,0.00,,,0.05,Wunderground v.1.15,2013-01-13 02:41:00,
2013-01-12 21:47:00,43.9,42.8,30.17,NNE,18,0.0,0.0,96,0.00,,,0.05,Wunderground v.1.15,2013-01-13 02:47:00,
2013-01-12 21:52:00,43.9,42.8,30.18,NNE,18,0.0,1.0,96,0.00,,,0.05,Wunderground v.1.15,2013-01-13 02:52:00,
2013-01-12 21:58:00,44.0,42.9,30.18,NNE,18,0.0,1.0,96,0.00,,,0.05,Wunderground v.1.15,2013-01-13 02:58:00,
2013-01-12 22:04:00,44.0,42.9,30.17,NNE,18,0.0,0.0,96,0.00,,,0.05,Wunderground v.1.15,2013-01-13 03:04:00,
2013-01-12 22:10:00,44.0,42.9,30.17,NNE,18,0.0,0.0,96,0.00,,,0.05,Wunderground v.1.15,2013-01-13 03:10:00,
2013-01-12 22:16:00,44.0,42.9,30.17,NNE,18,0.0,0.0,96,0.00,,,0.05,Wunderground v.1.15,2013-01-13 03:16:00,
2013-01-12 22:22:00,44.0,42.9,30.17,NNE,18,0.0,0.0,96,0.00,,,0.05,Wunderground v.1.15,2013-01-13 03:22:00,
2013-01-12 22:28:00,44.0,42.9,30.17,NNE,18,0.0,0.0,96,0.00,,,0.05,Wunderground v.1.15,2013-01-13 03:28:00,
2013-01-12 22:33:00,44.0,42.9,30.17,NNE,18,0.0,1.0,96,0.00,,,0.05,Wunderground v.1.15,2013-01-13 03:33:00,
2013-01-12 22:39:00,44.0,42.9,30.17,NNE,18,0.0,1.0,96,0.00,,,0.06,Wunderground v.1.15,2013-01-13 03:39:00,
2013-01-12 22:45:00,44.0,42.9,30.17,NNE,18,0.0,1.0,96,0.00,,,0.06,Wunderground v.1.15,2013-01-13 03:45:00,
2013-01-12 22:51:00,44.0,42.9,30.16,NNE,18,0.0,1.0,96,0.00,,,0.06,Wunderground v.1.15,2013-01-13 03:51:00,
2013-01-12 22:57:00,44.0,42.9,30.16,NNE,18,0.0,1.0,96,0.00,,,0.06,Wunderground v.1.15,2013-01-13 03:57:00,
2013-01-12 23:03:00,44.0,42.9,30.17,NNE,18,0.0,0.0,96,0.00,,,0.06,Wunderground v.1.15,2013-01-13 04:03:00,
2013-01-12 23:09:00,44.0,42.9,30.16,NNE,18,0.0,0.0,96,0.00,,,0.06,Wunderground v.1.15,2013-01-13 04:09:00,
2013-01-12 23:15:00,44.0,42.9,30.17,NNE,18,0.0,0.0,96,0.00,,,0.06,Wunderground v.1.15,2013-01-13 04:15:00,
2013-01-12 23:21:00,44.0,42.9,30.16,NNE,18,0.0,0.0,96,0.00,,,0.06,Wunderground v.1.15,2013-01-13 04:21:00,
2013-01-12 23:26:00,44.0,42.9,30.16,NNE,18,0.0,1.0,96,0.00,,,0.06,Wunderground v.1.15,2013-01-13 04:26:00,
2013-01-12 23:32:00,44.0,42.9,30.16,NNE,18,0.0,1.0,96,0.00,,,0.06,Wunderground v.1.15,2013-01-13 04:32:00,
2013-01-12 23:38:00,44.0,42.9,30.16,NNE,18,0.0,1.0,96,0.00,,,0.06,Wunderground v.1.15,2013-01-13 04:38:00,
2013-01-12 23:44:00,43.9,42.8,30.15,NNE,18,0.0,0.0,96,0.00,,,0.06,Wunderground v.1.15,2013-01-13 04:44:00,
2013-01-12 23:50:00,43.9,42.8,30.15,NNE,18,0.0,0.0,96,0.00,,,0.06,Wunderground v.1.15,2013-01-13 04:50:00,
2013-01-12 23:56:00,43.9,42.8,30.15,NNE,18,0.0,0.0,96,0.00,,,0.06,Wunderground v.1.15,2013-01-13 04:56:00,